Weather History for Joliet, IL

Change the Weather History Date:

Sunday, May 5, 2013

  Actual Average (KLOT) Record (KLOT)
Temperature  
Mean Temperature 60 °F 57 °F  
Max Temperature 72 °F 68 °F 84 °F (2000)
Min Temperature 48 °F 46 °F 32 °F (1992)
Degree Days  
Heating Degree Days 5 9  
Month to date heating degree days 46  
Since 1 July heating degree days 6040  
Cooling Degree Days 0 1  
Month to date cooling degree days 3  
Year to date cooling degree days 8  
Growing Degree Days 10 (Base 50)    
Moisture  
Dew Point 44 °F    
Average Humidity 57    
Maximum Humidity 88    
Minimum Humidity 33    
Precipitation  
Precipitation 0.00 in 0.14 in 0.15 in (2011)
Month to date precipitation 0.72  
Year to date precipitation 11.16  
Sea Level Pressure  
Sea Level Pressure 29.99 in    
Wind  
Wind Speed 7 mph (NE)    
Max Wind Speed 18 mph    
Max Gust Speed 24 mph    
Visibility 10 miles    
Events      
T = Trace of Precipitation, MM = Missing Value Source: NWS Daily Summary

Daily Weather History Graph

Daily Weather History Graph

Search for Another Location

Airport:

Trip Planner

Search our weather history database for the weather conditions in past years. The results will help you decide how hot, cold, wet, or windy it might be!

Date:

Astronomy

May. 05, 2013 Rise Set
Actual Time 5:44 AM CDT 7:55 PM CDT
Civil Twilight 5:13 AM CDT 8:25 PM CDT
Nautical Twilight 4:36 AM CDT 9:03 PM CDT
Astronomical Twilight 3:54 AM CDT 9:45 PM CDT
Moon 3:17 AM CDT (5/5) 3:51 PM CDT (5/5)
Length of Visible Light 15h 12m
Length of Day
14h 10m
Waning Crescent, 18% of the Moon is Illuminated
May 5
Waning Crescent
May 9
New
May 17
First Quarter
May 24
Full
May 31
Last Quarter

Hourly Weather History & Observations

Time (CDT) Temp. Dew Point Humidity Pressure Visibility Wind Dir Wind Speed Gust Speed Precip Events Conditions
12:15 AM 54.0 °F 50.5 °F 88% 30.02 in 10.0 mi North 3.5 mph - N/A   Clear
12:35 AM 53.6 °F 50.2 °F 88% 30.02 in 10.0 mi North 4.6 mph - N/A   Clear
12:55 AM 53.6 °F 47.5 °F 80% 30.01 in 10.0 mi North 3.5 mph - N/A   Clear
1:15 AM 52.9 °F 46.6 °F 79% 30.01 in 10.0 mi Calm Calm - N/A   Clear
1:35 AM 53.1 °F 46.4 °F 78% 30.00 in 10.0 mi NNW 3.5 mph - N/A   Scattered Clouds
1:55 AM 51.8 °F 45.0 °F 77% 29.99 in 10.0 mi North 4.6 mph - N/A   Scattered Clouds
2:15 AM 51.1 °F 44.6 °F 78% 29.99 in 10.0 mi NNE 5.8 mph - N/A   Clear
2:35 AM 51.1 °F 43.9 °F 76% 29.99 in 10.0 mi North 3.5 mph - N/A   Clear
2:55 AM 51.4 °F 43.9 °F 75% 29.98 in 10.0 mi North 9.2 mph - N/A   Scattered Clouds
3:15 AM 52.0 °F 43.9 °F 74% 29.98 in 10.0 mi North 8.1 mph - N/A   Clear
3:35 AM 51.8 °F 43.7 °F 74% 29.98 in 10.0 mi North 6.9 mph - N/A   Clear
3:55 AM 52.0 °F 43.7 °F 73% 29.97 in 10.0 mi North 6.9 mph - N/A   Scattered Clouds
4:15 AM 51.4 °F 43.7 °F 75% 29.99 in 10.0 mi NE 8.1 mph - N/A   Mostly Cloudy
4:35 AM 50.5 °F 42.8 °F 75% 29.98 in 10.0 mi NNE 4.6 mph - N/A   Mostly Cloudy
4:55 AM 49.5 °F 42.8 °F 78% 29.98 in 10.0 mi NNE 4.6 mph - N/A   Scattered Clouds
5:15 AM 49.1 °F 42.4 °F 78% 29.98 in 10.0 mi NNE 3.5 mph - N/A   Clear
5:35 AM 48.2 °F 42.8 °F 82% 29.99 in 10.0 mi NNE 3.5 mph - N/A   Clear
5:55 AM 48.6 °F 42.4 °F 79% 29.99 in 10.0 mi NNE 5.8 mph - N/A   Clear
6:15 AM 48.9 °F 42.8 °F 79% 29.99 in 10.0 mi NNE 3.5 mph - N/A   Clear
6:35 AM 49.8 °F 43.2 °F 78% 29.99 in 10.0 mi NNE 5.8 mph - N/A   Mostly Cloudy
6:55 AM 50.9 °F 43.7 °F 76% 30.00 in 10.0 mi NNE 5.8 mph - N/A   Overcast
7:15 AM 52.0 °F 44.1 °F 74% 30.00 in 10.0 mi NE 4.6 mph - N/A   Overcast
7:35 AM 53.4 °F 44.4 °F 72% 30.00 in 10.0 mi NE 5.8 mph - N/A   Overcast
7:55 AM 54.7 °F 44.6 °F 69% 30.00 in 10.0 mi NNE 5.8 mph - N/A   Overcast
8:15 AM 56.8 °F 45.7 °F 66% 30.00 in 10.0 mi NNE 5.8 mph - N/A   Mostly Cloudy
8:35 AM 58.8 °F 46.2 °F 63% 30.00 in 10.0 mi NE 4.6 mph - N/A   Scattered Clouds
8:55 AM 59.2 °F 45.9 °F 61% 30.00 in 10.0 mi NNE 5.8 mph - N/A   Clear
9:15 AM 61.2 °F 46.6 °F 59% 30.00 in 10.0 mi NNE 4.6 mph - N/A   Clear
9:35 AM 64.0 °F 47.8 °F 56% 30.00 in 10.0 mi NE 5.8 mph - N/A   Clear
9:55 AM 65.1 °F 47.8 °F 54% 30.00 in 10.0 mi NE 4.6 mph - N/A   Clear
10:15 AM 65.7 °F 47.7 °F 52% 30.00 in 10.0 mi ENE 8.1 mph - N/A   Clear
10:35 AM 67.3 °F 48.4 °F 51% 30.00 in 10.0 mi NNE 5.8 mph - N/A   Clear
10:55 AM 67.8 °F 47.8 °F 49% 30.00 in 10.0 mi NE 8.1 mph - N/A   Clear
11:15 AM 70.0 °F 47.8 °F 45% 29.99 in 10.0 mi ENE 9.2 mph 16.1 mph N/A   Clear
11:35 AM 70.7 °F 45.7 °F 41% 29.98 in 10.0 mi NE 11.5 mph - N/A   Clear
11:55 AM 71.1 °F 45.3 °F 40% 29.97 in 10.0 mi NNE 12.7 mph 19.6 mph N/A   Clear
12:15 PM 71.8 °F 45.3 °F 39% 29.97 in 10.0 mi ENE 13.8 mph 20.7 mph N/A   Clear
12:35 PM 72.3 °F 43.0 °F 35% 29.96 in 10.0 mi NE 13.8 mph 18.4 mph N/A   Clear
12:55 PM 71.4 °F 42.3 °F 35% 29.96 in 10.0 mi NE 12.7 mph - N/A   Clear
1:15 PM 71.2 °F 40.5 °F 33% 29.96 in 10.0 mi NE 13.8 mph 24.2 mph N/A   Clear
1:35 PM 71.8 °F 41.4 °F 33% 29.96 in 10.0 mi NE 18.4 mph - N/A   Clear
1:55 PM 71.6 °F 41.9 °F 34% 29.96 in 10.0 mi NNE 17.3 mph 23.0 mph N/A   Clear
2:15 PM 70.7 °F 41.7 °F 35% 29.97 in 10.0 mi ENE 16.1 mph 19.6 mph N/A   Clear
2:35 PM 71.1 °F 40.3 °F 33% 29.96 in 10.0 mi ENE 15.0 mph - N/A   Clear
2:55 PM 69.6 °F 41.5 °F 36% 29.96 in 10.0 mi NE 12.7 mph 17.3 mph N/A   Clear
3:15 PM 70.0 °F 43.0 °F 38% 29.96 in 10.0 mi NE 13.8 mph 20.7 mph N/A   Clear
3:35 PM 70.7 °F 43.0 °F 37% 29.95 in 10.0 mi ENE 15.0 mph 23.0 mph N/A   Clear
3:55 PM 69.8 °F 41.9 °F 36% 29.95 in 10.0 mi NE 12.7 mph 18.4 mph N/A   Clear
4:15 PM 70.0 °F 43.2 °F 38% 29.95 in 10.0 mi ENE 15.0 mph 21.9 mph N/A   Clear
4:35 PM 69.8 °F 43.2 °F 38% 29.95 in 10.0 mi NE 15.0 mph 18.4 mph N/A   Clear
4:55 PM 68.5 °F 43.0 °F 40% 29.96 in 10.0 mi East 17.3 mph 23.0 mph N/A   Clear
5:15 PM 67.6 °F 43.2 °F 41% 29.96 in 10.0 mi NE 13.8 mph - N/A   Scattered Clouds
5:35 PM 67.5 °F 43.2 °F 41% 29.96 in 10.0 mi ENE 11.5 mph 18.4 mph N/A   Clear
5:55 PM 67.3 °F 43.9 °F 43% 29.97 in 10.0 mi East 9.2 mph - N/A   Scattered Clouds
6:15 PM 66.2 °F 43.7 °F 44% 29.97 in 10.0 mi ENE 11.5 mph 18.4 mph N/A   Scattered Clouds
6:35 PM 65.5 °F 44.2 °F 46% 29.98 in 10.0 mi ENE 9.2 mph - N/A   Scattered Clouds
6:55 PM 65.1 °F 44.4 °F 47% 29.98 in 10.0 mi East 9.2 mph - N/A   Clear
7:15 PM 64.4 °F 44.2 °F 48% 29.98 in 10.0 mi NE 5.8 mph - N/A   Scattered Clouds
7:35 PM 63.7 °F 44.8 °F 50% 29.99 in 10.0 mi ENE 8.1 mph - N/A   Mostly Cloudy
7:55 PM 62.6 °F 45.5 °F 54% 30.00 in 10.0 mi East 5.8 mph - N/A   Overcast
8:15 PM 61.9 °F 45.3 °F 55% 30.00 in 10.0 mi ENE 6.9 mph - N/A   Overcast
8:35 PM 61.7 °F 43.7 °F 52% 30.00 in 10.0 mi NE 8.1 mph - N/A   Overcast
8:55 PM 61.3 °F 42.6 °F 50% 30.01 in 10.0 mi NE 8.1 mph - N/A   Overcast
9:15 PM 60.3 °F 42.6 °F 52% 30.02 in 10.0 mi NE 5.8 mph - N/A   Mostly Cloudy
9:35 PM 59.5 °F 43.0 °F 54% 30.03 in 10.0 mi ESE 4.6 mph - N/A   Mostly Cloudy
9:55 PM 59.0 °F 42.1 °F 53% 30.03 in 10.0 mi East 5.8 mph - N/A   Overcast
10:15 PM 58.1 °F 42.4 °F 56% 30.03 in 10.0 mi East 3.5 mph - N/A   Overcast
10:35 PM 57.2 °F 42.6 °F 58% 30.03 in 10.0 mi Calm Calm - N/A   Mostly Cloudy
10:55 PM 57.4 °F 42.1 °F 57% 30.03 in 10.0 mi Calm Calm - N/A   Overcast
11:15 PM 57.0 °F 43.9 °F 61% 30.02 in 10.0 mi NNE 4.6 mph - N/A   Overcast
11:35 PM 57.2 °F 43.0 °F 59% 30.01 in 10.0 mi NNW 3.5 mph - N/A   Overcast
11:55 PM 57.4 °F 42.6 °F 58% 30.01 in 10.0 mi Calm Calm - N/A   Overcast